SCP
0 0 1 1 1 1 1 1 1 1 1 1 1 1 1 1 1 1 1 1 1 1 1 1 1 0 0 0 0 0 1 1 1 0 0 0 0 0 0 0 0 0 0
0 0 1 1 1 1 1 1 1 1 1 1 1 1 1 1 1 1 1 1 1 1 1 1 1 1 1 0 0 0 0 1 0 0 0 0 0 0 0 0 1 0 0
0 0 0 1 1 1 1 1 1 1 1 1 1 1 1 1 1 1 1 1 0 1 1 1 1 1 1 1 0 0 0 0 0 0 0 0 0 0 0 0 1 0 0
0 0 0 1 1 1 1 1 1 1 1 1 1 1 1 1 1 1 1 0 0 0 1 1 1 1 1 1 0 0 0 0 0 0 0 0 0 0 0 0 1 1 1
0 0 0 1 1 1 1 1 1 1 0 1 1 1 1 1 1 1 1 1 1 0 0 1 1 1 0 0 0 0 0 0 0 0 0 0 0 0 0 0 1 1 1
0 0 0 1 1 1 1 1 1 1 1 1 1 1 1 1 1 1 1 1 1 1 1 1 1 1 0 0 0 0 0 0 0 0 0 0 0 0 0 0 0 1 1
0 0 1 1 1 1 1 1 1 1 1 1 1 1 1 1 1 1 1 1 1 1 1 1 1 1 1 1 1 0 1 1 0 0 0 0 0 0 0 0 0 0 1
0 0 0 1 1 1 1 1 1 1 1 1 1 1 2 1 1 1 1 1 1 1 1 1 1 1 1 1 1 0 1 1 0 0 0 0 0 0 0 0 0 0 0
0 0 0 0 1 1 1 1 1 1 1 1 1 1 1 1 1 1 1 1 1 1 1 1 1 1 1 1 1 0 0 0 0 0 0 0 0 0 0 0 0 0 0
0 0 0 0 0 0 0 0 1 1 1 1 1 1 1 1 1 1 1 1 1 1 1 1 1 1 1 1 0 0 0 0 0 0 0 0 0 0 0 1 1 1 0
0 0 0 0 0 0 0 0 1 1 1 1 1 1 1 1 0 0 1 1 1 1 1 1 1 1 1 1 1 0 0 0 0 0 0 1 1 1 1 1 1 1 1
0 0 0 0 0 0 0 0 0 0 0 0 1 1 1 1 0 0 1 1 1 1 1 1 1 1 1 1 1 1 1 1 1 1 1 1 1 1 1 1 1 1 1
1 0 0 0 0 0 0 0 0 0 0 0 0 1 1 1 0 1 1 1 1 1 1 1 1 1 1 1 1 1 1 1 1 1 1 1 1 1 1 1 1 1 1
1 1 0 0 0 0 0 0 0 0 0 0 0 0 0 0 0 1 1 1 1 1 1 1 1 1 1 1 1 1 1 1 1 1 1 1 1 1 1 1 1 1 1
1 1 0 0 0 0 0 0 0 0 0 0 0 0 0 0 0 0 1 1 1 1 1 1 1 1 1 1 1 1 1 1 1 1 1 1 1 2 1 1 1 1 1
1 1 1 0 0 0 1 0 0 0 0 0 0 0 0 0 0 0 1 1 1 1 1 1 1 1 1 1 1 1 1 1 1 1 1 1 2 2 2 1 1 1 1
1 1 1 1 1 1 1 0 0 0 0 0 0 0 0 0 0 0 1 1 1 1 1 1 1 1 1 1 1 1 1 1 1 1 1 1 1 2 1 1 1 1 1
1 0 1 1 1 1 0 0 0 0 0 0 0 0 0 0 0 0 0 1 1 1 1 1 1 1 1 1 1 1 1 1 1 1 1 1 1 1 1 1 1 1 1
1 0 1 1 1 1 0 0 0 0 0 0 0 0 0 0 0 0 0 0 1 1 1 1 1 1 1 1 1 1 1 1 1 1 1 1 1 1 1 1 1 1 1
0 0 1 1 1 1 0 0 0 0 0 1 1 1 1 1 1 1 1 1 1 1 1 1 1 1 1 1 1 1 1 1 0 0 1 1 1 1 1 1 1 1 1
1 0 1 1 1 1 0 0 1 1 1 1 2 2 1 1 1 1 1 1 1 1 1 1 1 1 1 2 2 1 1 1 0 0 0 1 1 1 1 1 1 1 1
1 1 1 1 1 1 1 1 1 2 2 2 2 2 1 1 1 1 1 1 1 1 1 1 1 1 1 2 2 2 1 1 0 0 0 1 1 1 1 1 1 1 1
1 1 1 1 1 1 1 1 2 2 2 2 2 1 1 1 1 1 1 1 1 1 1 1 1 1 1 1 1 1 1 1 1 0 0 1 1 1 1 1 1 1 1
1 1 1 1 1 1 1 1 2 2 2 2 1 1 1 1 1 1 0 0 0 1 1 1 1 1 1 1 1 1 1 1 1 1 0 0 1 1 1 1 1 1 1
1 1 1 1 1 1 1 1 2 2 2 1 1 1 1 1 1 1 0 0 0 1 1 1 1 1 1 1 1 1 1 1 1 1 1 1 1 1 1 1 1 1 1
1 1 1 1 1 1 1 1 1 2 1 1 1 1 1 1 1 1 0 0 0 1 1 1 1 1 1 1 1 1 1 1 1 1 1 1 1 1 1 1 1 1 1
Wind_Speed
2 2 7 9 10 11 12 12 13 13 14 14 14 14 14 14 14 13 12 12 11 10 10 10 9 9 9 9 9 9 9 9 8 8 8 8 8 8 9 9 9 8 11
4 4 8 9 10 11 11 12 12 13 13 13 13 13 13 13 12 12 11 11 11 10 10 9 8 8 9 9 9 9 8 8 8 8 8 7 7 8 8 9 9 6 10
5 4 6 9 10 11 11 11 11 12 13 13 13 12 12 12 11 11 11 10 10 10 9 8 8 9 8 8 8 8 7 7 6 7 6 4 5 7 8 9 9 9 10
5 4 6 10 11 11 11 11 10 11 12 12 12 12 11 11 10 10 9 10 10 9 8 8 7 8 8 7 7 7 7 6 5 6 3 3 3 7 8 8 9 9 9
5 4 6 11 11 11 11 10 10 11 11 11 11 11 11 10 10 9 8 9 9 8 8 7 7 7 7 7 6 6 5 5 5 4 2 2 2 6 7 8 8 8 9
4 3 6 12 11 11 11 10 9 9 10 10 10 10 9 9 9 8 8 8 7 7 7 7 6 6 6 5 5 5 5 5 4 2 2 2 2 5 7 8 8 8 8
3 2 5 11 11 10 10 10 9 9 9 9 9 8 8 7 7 7 7 7 6 6 6 5 6 5 5 5 4 4 4 4 3 3 2 2 3 5 6 7 7 8 8
4 3 5 10 10 10 9 9 9 8 9 8 8 7 7 6 6 6 6 6 6 5 5 5 5 4 4 4 3 3 3 3 4 3 3 2 4 5 6 6 7 8 8
4 4 4 4 5 7 8 8 8 7 7 7 7 6 6 5 5 5 5 5 5 5 4 4 3 3 3 2 2 2 2 3 2 2 3 2 4 6 6 6 6 7 7
4 3 3 3 3 3 3 6 7 6 6 6 6 5 5 4 4 4 4 4 4 4 4 3 3 3 2 2 2 1 2 3 2 2 2 3 5 6 7 7 7 7 8
3 2 2 3 3 2 2 3 4 4 4 3 3 3 2 1 1 1 2 3 3 3 3 3 2 2 1 1 1 1 2 1 2 1 1 4 6 6 6 7 7 7 7
4 2 2 2 2 2 2 2 1 1 1 1 1 1 1 1 0 1 1 1 2 2 2 1 1 1 1 1 1 1 1 1 1 1 2 4 5 6 6 7 7 7 7
4 3 2 2 2 2 1 1 1 1 1 1 1 1 1 1 1 1 1 1 1 0 0 1 1 1 1 0 0 1 1 1 1 1 1 4 4 5 5 6 6 6 7
4 3 3 3 2 2 1 1 1 1 1 0 0 1 1 0 0 0 0 0 0 0 1 1 0 1 0 0 0 0 1 1 1 1 1 3 3 4 5 5 6 6 7
5 4 4 4 3 2 2 1 1 1 1 0 0 1 1 1 0 0 0 0 0 0 1 0 0 0 0 1 1 1 1 1 1 1 1 2 2 3 4 5 5 6 6
7 5 4 4 4 3 2 1 1 1 1 1 0 1 1 1 1 0 0 0 1 1 1 1 1 1 1 1 1 1 1 1 1 1 1 1 2 2 3 3 4 5 6
7 6 5 5 4 4 3 2 1 1 1 0 1 1 1 1 1 1 0 1 1 1 1 1 1 0 0 0 0 0 0 1 1 1 1 1 1 2 3 3 4 4 5
6 6 5 5 5 4 3 2 1 1 1 1 0 0 1 1 1 1 0 1 1 0 1 1 1 1 0 0 0 0 0 1 1 1 1 1 1 1 2 3 4 3 4
7 6 6 4 5 5 4 2 1 1 1 1 1 1 1 1 1 1 1 1 0 0 0 1 1 1 1 0 0 0 0 1 1 1 1 1 1 1 1 2 3 3 4
6 6 6 4 4 4 3 2 1 1 0 1 1 1 1 1 1 1 1 0 0 1 0 1 1 1 1 1 0 0 1 1 1 1 2 1 1 2 2 2 1 2 3
6 6 6 5 4 4 2 2 2 1 1 0 1 1 1 1 1 1 0 0 0 1 1 1 1 1 1 1 1 1 2 1 1 1 1 1 2 2 2 2 1 1 1
8 7 6 6 6 5 3 3 2 2 1 1 0 0 1 1 1 1 1 1 1 1 1 1 1 1 0 1 2 1 1 2 2 1 1 1 2 1 2 2 2 2 2
8 9 8 7 6 5 4 3 2 2 1 1 1 0 1 1 1 1 1 1 1 1 1 1 1 2 1 0 1 2 2 2 2 2 1 1 1 1 2 2 2 2 3
9 8 7 7 6 5 5 4 4 3 2 2 1 1 1 0 1 1 1 1 1 1 1 1 1 2 2 1 0 0 1 2 1 1 2 2 2 1 2 2 2 2 2
8 7 7 6 6 5 5 5 5 3 2 1 1 1 0 0 0 1 1 1 1 1 1 1 1 1 2 2 2 1 1 1 1 1 2 2 2 1 2 2 2 2 2
7 6 6 6 5 5 5 5 5 5 4 3 1 1 1 0 0 1 1 1 1 1 1 1 1 1 2 2 2 2 2 2 2 2 2 2 2 2 2 1 2 2 2
Wind_Direction
158 154 140 131 129 125 121 120 120 122 123 125 126 127 127 128 128 128 131 133 134 132 128 123 121 120 121 121 119 119 121 122 124 124 126 128 125 122 122 120 119 118 124
142 144 142 136 131 127 124 123 125 128 129 130 129 129 130 131 131 131 131 133 133 131 127 124 122 126 122 121 120 119 121 122 126 127 127 127 127 129 128 127 127 128 130
132 138 142 139 133 129 127 126 127 131 131 131 132 133 133 134 135 134 135 135 134 131 128 125 122 128 126 126 125 125 122 124 130 129 124 115 127 138 138 137 138 136 136
131 132 141 140 135 132 130 129 128 133 133 133 135 136 137 138 139 138 140 140 139 136 134 131 130 130 131 130 130 130 130 129 131 131 118 128 138 143 146 144 144 143 142
121 130 150 142 138 135 132 130 128 132 135 135 135 135 137 139 141 142 144 142 143 143 143 142 138 137 137 135 136 136 138 138 136 127 124 132 137 152 154 152 149 150 149
117 139 156 143 141 137 135 132 131 132 136 136 135 136 138 140 142 143 141 141 142 147 148 144 138 136 138 142 145 145 150 148 133 117 123 145 155 165 163 161 157 157 155
113 116 151 143 140 137 136 135 133 136 139 137 138 140 141 144 146 147 146 144 145 148 149 144 140 135 137 138 136 140 151 155 138 129 143 165 174 175 169 165 164 163 162
106 91 115 136 137 137 138 139 137 136 140 140 138 139 145 148 150 149 151 151 149 149 147 146 145 146 145 137 133 138 140 150 143 148 159 175 184 184 178 175 171 172 171
94 91 92 111 126 136 139 141 142 143 142 141 141 141 144 145 146 147 149 151 154 156 155 154 151 147 148 154 154 161 155 153 142 160 174 178 190 192 190 188 186 179 175
89 90 96 94 90 94 117 141 148 150 148 147 146 146 144 143 141 146 146 153 158 161 161 162 164 165 163 167 176 182 154 138 150 169 186 188 195 197 195 193 188 186 185
119 93 101 98 93 95 111 152 148 150 145 142 140 147 131 78 81 133 167 175 178 180 180 180 178 171 147 129 114 97 100 122 147 171 202 205 203 203 200 195 190 193 193
163 157 132 125 119 115 136 100 77 79 70 65 57 60 65 62 61 136 184 188 202 204 202 192 200 122 60 44 59 68 92 140 157 185 203 211 211 208 206 197 193 198 199
173 167 156 152 144 133 107 96 82 66 59 55 62 70 61 45 21 26 21 344 358 0 29 42 17 54 58 55 52 90 147 172 186 206 208 206 207 203 206 200 198 203 204
174 187 177 164 156 157 138 110 110 108 91 68 41 119 110 69 37 49 40 6 24 54 87 71 73 71 58 260 176 176 174 165 188 209 221 209 204 208 212 205 201 206 211
184 194 188 174 168 162 145 157 140 150 149 140 77 109 141 173 205 89 36 40 352 117 149 147 164 167 236 272 237 193 185 185 204 217 231 215 213 215 216 209 208 208 213
190 194 185 179 176 167 161 162 172 175 163 143 190 193 178 185 183 141 343 310 275 220 188 184 202 198 222 227 255 214 188 172 185 185 218 234 213 206 205 210 218 221 218
186 186 182 180 172 172 175 174 165 180 161 184 222 203 187 188 181 172 207 269 267 223 184 175 181 154 187 185 231 236 201 195 198 200 209 212 221 214 213 222 227 224 220
177 178 185 183 170 175 177 170 168 179 167 194 208 192 204 203 179 161 201 259 259 175 159 160 151 136 88 96 244 265 254 241 223 212 211 222 230 240 236 231 232 232 226
179 175 179 180 169 173 172 165 166 167 167 185 178 187 222 213 164 158 213 264 219 142 159 187 128 152 159 203 231 201 229 241 247 222 212 222 228 240 244 239 237 229 233
175 172 176 175 169 159 147 133 123 114 173 172 184 202 208 206 171 154 185 259 166 123 82 174 161 139 171 191 210 10 317 275 289 258 245 247 238 238 239 246 247 244 244
169 172 177 174 172 155 146 151 155 184 197 186 196 181 185 185 161 160 188 194 149 154 183 175 147 108 51 87 81 23 350 345 269 264 262 259 257 245 225 225 228 241 255
178 180 182 182 175 171 170 164 161 152 161 161 81 75 178 190 186 182 174 187 174 149 107 122 135 131 115 117 124 96 360 338 333 322 284 255 265 246 230 228 224 230 239
186 189 191 187 178 174 163 135 111 81 59 61 66 89 247 202 187 175 164 150 146 152 177 190 171 163 173 169 123 139 150 238 304 325 309 295 275 242 244 243 234 235 236
195 188 184 179 176 171 161 157 156 162 177 197 191 204 250 191 170 171 157 147 145 153 179 215 176 174 153 170 187 145 154 161 167 303 313 308 293 253 254 251 252 243 238
185 181 177 171 173 171 165 165 163 164 173 164 145 155 226 356 172 198 169 158 160 166 194 199 148 165 162 168 173 163 145 118 156 180 275 303 311 279 260 253 248 251 240
169 172 169 169 179 173 169 168 168 169 168 157 160 178 236 288 273 249 193 184 193 187 204 208 191 182 183 170 171 167 166 171 193 186 223 257 277 287 281 267 255 256 246